Location: Aalen
(48.8330°N, 10.1000°E)
Time: 04:41:27
(UTC+02:00)

SR - All Passes

Search period start: 06 August 2021 00:00
Search period end: 16 August 2021 00:00
Orbit: 578 x 877 km, 66.7° (Epoch: 05 August)

Date Brightness Start Highest point End Pass type
(mag) Time Alt. Az. Time Alt. Az. Time Alt. Az.
06 Aug - 05:04:26 10° SSE 05:08:38 21° ESE 05:12:41 10° ENE visible
06 Aug - 06:44:27 10° SW 06:50:14 79° NW 06:55:39 10° NE daylight
06 Aug - 08:28:48 10° W 08:33:06 22° NNW 08:37:11 10° NNE daylight
06 Aug - 10:15:52 10° NNW 10:17:10 11° N 10:18:27 10° N daylight
06 Aug - 11:59:14 10° N 12:01:36 13° NNE 12:03:53 10° NE daylight
06 Aug - 13:40:37 10° NNW 13:45:11 37° NE 13:49:23 10° ESE daylight
06 Aug - 15:22:51 10° NW 15:27:13 37° WSW 15:31:17 10° S daylight
07 Aug - 04:17:49 10° ESE 04:19:16 11° ESE 04:20:41 10° E visible
07 Aug - 05:54:44 10° SSW 06:00:26 62° ESE 06:05:47 10° NE daylight
07 Aug - 07:37:49 10° WSW 07:42:51 32° NW 07:47:36 10° NNE daylight
07 Aug - 09:24:10 10° NW 09:26:33 13° NNW 09:28:51 10° N daylight
07 Aug - 11:09:41 10° N 11:10:59 11° N 11:12:16 10° NNE daylight
07 Aug - 12:50:59 10° NNW 12:54:58 24° NE 12:58:42 10° E daylight
07 Aug - 14:32:46 10° NW 14:37:35 73° WSW 14:41:59 10° SSE daylight
08 Aug - 05:05:35 10° S 05:10:46 35° ESE 05:15:41 10° NE visible
08 Aug - 06:47:12 10° WSW 06:52:45 50° NW 06:57:57 10° NNE daylight
08 Aug - 08:32:35 10° WNW 08:36:01 17° NNW 08:39:18 10° NNE daylight
08 Aug - 10:19:47 10° N 10:20:19 10° N 10:20:51 10° N daylight
08 Aug - 12:01:25 10° NNW 12:04:35 17° NNE 12:07:36 10° ENE daylight
08 Aug - 13:42:55 10° NNW 13:47:44 60° NE 13:52:09 10° SE daylight
08 Aug - 15:25:51 10° WNW 15:29:16 20° WSW 15:32:29 10° SSW daylight
09 Aug - 04:17:14 10° SSE 04:21:15 20° ESE 04:25:07 10° ENE visible
09 Aug - 05:57:03 10° SW 06:02:49 83° NW 06:08:12 10° NE daylight
09 Aug - 07:41:16 10° W 07:45:37 23° NW 07:49:45 10° NNE daylight
09 Aug - 09:28:20 10° NNW 09:29:38 11° N 09:30:56 10° N daylight
09 Aug - 11:11:53 10° N 11:14:05 13° NNE 11:16:12 10° NE daylight
09 Aug - 12:53:13 10° NNW 12:57:41 35° NE 13:01:50 10° ESE daylight
09 Aug - 14:35:23 10° NW 14:39:47 39° WSW 14:43:53 10° S daylight
10 Aug - 05:07:22 10° SSW 05:13:01 58° ESE 05:18:19 10° NE visible
10 Aug - 06:50:18 10° WSW 06:55:23 33° NW 07:00:09 10° NNE daylight
10 Aug - 08:36:36 10° NW 08:39:01 13° NNW 08:41:23 10° N daylight
10 Aug - 10:22:23 10° N 10:23:28 11° N 10:24:32 10° NNE daylight
10 Aug - 12:03:35 10° NNW 12:07:28 22° NNE 12:11:06 10° E daylight
10 Aug - 13:45:20 10° NW 13:50:08 78° WSW 13:54:32 10° SSE daylight
10 Aug - 15:30:26 10° W 15:31:09 10° WSW 15:31:52 10° WSW daylight
11 Aug - 04:18:17 10° S 04:23:21 33° ESE 04:28:10 10° NE visible
11 Aug - 05:59:44 10° SW 06:05:18 52° NW 06:10:30 10° NNE daylight
11 Aug - 07:45:01 10° WNW 07:48:30 17° NNW 07:51:51 10° NNE daylight
11 Aug - 09:32:38 10° N 09:32:47 10° N 09:32:57 10° N daylight
11 Aug - 11:14:02 10° NNW 11:17:05 16° NNE 11:19:58 10° ENE daylight
11 Aug - 12:55:30 10° NNW 13:00:16 56° NE 13:04:38 10° SE daylight
11 Aug - 14:38:20 10° WNW 14:41:51 21° WSW 14:45:11 10° SSW daylight
12 Aug - 03:30:03 10° SSE 03:33:51 18° ESE 03:37:32 10° ENE visible
12 Aug - 05:09:38 10° SW 05:15:23 87° NW 05:20:45 10° NE visible
12 Aug - 06:53:43 10° W 06:58:08 23° NW 07:02:18 10° NNE daylight
12 Aug - 08:40:48 10° NNW 08:42:07 11° N 08:43:25 10° N daylight
12 Aug - 10:24:32 10° N 10:26:33 12° NNE 10:28:30 10° NE daylight
12 Aug - 12:05:49 10° NNW 12:10:12 33° NE 12:14:17 10° ESE daylight
12 Aug - 13:47:55 10° NW 13:52:21 42° WSW 13:56:29 10° S daylight
13 Aug - 04:20:01 10° SSW 04:25:36 55° ESE 04:30:50 10° NE visible
13 Aug - 06:02:47 10° WSW 06:07:55 35° NW 06:12:43 10° NNE daylight
13 Aug - 07:49:01 10° NW 07:51:30 13° NNW 07:53:55 10° N daylight
13 Aug - 09:35:07 10° N 09:35:56 10° N 09:36:43 10° NNE daylight
13 Aug - 11:16:12 10° NNW 11:19:58 21° NNE 11:23:29 10° E daylight
13 Aug - 12:57:54 10° NW 13:02:40 84° WSW 13:07:04 10° SSE daylight
13 Aug - 14:42:26 10° W 14:43:46 11° WSW 14:45:04 10° WSW daylight
14 Aug - 03:31:00 10° S 03:35:57 31° ESE 03:40:40 10° NE visible
14 Aug - 05:12:17 10° SW 05:17:51 55° NW 05:23:03 10° NNE visible
14 Aug - 06:57:27 10° WNW 07:01:01 17° NNW 07:04:24 10° NNE daylight
14 Aug - 10:26:39 10° NNW 10:29:33 15° NNE 10:32:19 10° ENE daylight
14 Aug - 12:08:05 10° NNW 12:12:48 53° NE 12:17:07 10° SE daylight
14 Aug - 13:50:49 10° WNW 13:54:26 23° WSW 13:57:52 10° SSW daylight
15 Aug - 02:42:54 10° SE 02:46:28 17° ESE 02:49:56 10° ENE visible
15 Aug - 04:22:13 10° SSW 04:27:56 89° SE 04:33:17 10° NE visible
15 Aug - 06:06:11 10° W 06:10:39 24° NW 06:14:52 10° NNE daylight
15 Aug - 07:53:15 10° NNW 07:54:35 11° N 07:55:54 10° N daylight
15 Aug - 09:37:12 10° N 09:39:01 12° NNE 09:40:48 10° NE daylight
15 Aug - 11:18:24 10° NNW 11:22:43 31° NE 11:26:43 10° ESE daylight
15 Aug - 13:00:27 10° NW 13:04:55 45° WSW 13:09:05 10° S daylight
